Le nostre stazioni meteo in Italia

Pubblicità
Il mio iltempo24.it
Pian Rosa, Italia (16052): Temperatura & dewpoint: 06.11.2019 06:00:00 - 12.11.2019 06:00:00 (CET)Pian Rosa, Italia (16052): velocità del vento & gusts: 06.11.2019 06:00:00 - 12.11.2019 06:00:00 (CET)Pian Rosa, Italia (16052): direzione del vento: 06.11.2019 06:00:00 - 12.11.2019 06:00:00 (CET)Pian Rosa, Italia (16052): visibility: 06.11.2019 06:00:00 - 12.11.2019 06:00:00 (CET)Pian Rosa, Italia (16052): ore di luce: 06.11.2019 06:00:00 - 12.11.2019 06:00:00 (CET)
Data & Tempo tt [°C] td [°C] ff [km/h] ff [kn] fx [km/h] fx [kn] dd vv [km] sd [min]
12.11.2019 06:00:00 -12,2 -13,5 21 11 - - ENE 10 0
12.11.2019 05:00:00 -11,6 -17,2 4 2 - - N 20 0
12.11.2019 04:00:00 -11,4 -15,3 11 6 - - SSO 20 0
12.11.2019 03:00:00 -11,2 -15,4 16 9 - - SSO 20 0
12.11.2019 02:00:00 -11,2 -12,2 11 6 - - SSO 20 0
12.11.2019 01:00:00 -11,0 -12,0 15 8 - - SSO 10 0
12.11.2019 00:00:00 -10,0 -11,0 18 10 - - SO 10 0
11.11.2019 23:00:00 -9,6 -10,6 4 2 - - N 0,5 0
11.11.2019 22:00:00 -9,6 -10,6 21 11 - - SO 0,1 0
11.11.2019 21:00:00 -9,0 -10,2 22 12 - - SO 0,1 0
11.11.2019 20:00:00 -9,0 -10,2 31 17 - - SSO 0,1 0
11.11.2019 19:00:00 -9,0 -10,2 29 16 - - SSO 0,1 0
11.11.2019 18:00:00 -8,6 -9,8 4 2 - - N 0,1 0
11.11.2019 17:00:00 -8,2 -9,4 26 14 - - SSO 0,1 0
11.11.2019 16:00:00 -8,2 -9,4 39 21 - - SSO 0,1 0
11.11.2019 15:00:00 -8,2 -9,3 29 16 - - SSO 0,1 0
11.11.2019 14:00:00 -8,2 -9,3 31 17 - - S 0,1 0
11.11.2019 13:00:00 -8,6 -9,5 15 8 - - - 0,1 0
11.11.2019 12:00:00 -8,4 -9,2 21 11 - - SO 0,1 0
11.11.2019 11:00:00 -8,8 -9,6 31 17 - - SSO 0,1 0
11.11.2019 10:00:00 -9,0 -9,3 31 17 - - SSO 0,1 0
11.11.2019 09:00:00 -9,0 -9,3 35 19 - - S 0,5 0
11.11.2019 08:00:00 -9,0 -9,3 39 21 - - S 0,8 0
11.11.2019 07:00:00 -9,0 -10,3 21 11 - - S 20 0
11.11.2019 06:00:00 -9,0 -15,0 31 17 - - SSE 10 0
11.11.2019 05:00:00 -8,4 -13,4 39 21 - - SSE 10 0
11.11.2019 04:00:00 -8,0 -11,6 24 13 - - SSE 10 0
11.11.2019 03:00:00 -8,6 -12,7 42 23 - - SE 10 0
11.11.2019 02:00:00 -8,8 -13,8 42 23 - - SE 10 0
11.11.2019 01:00:00 -9,2 -14,2 44 24 - - SE 10 0
11.11.2019 00:00:00 -9,8 -10,2 26 14 - - ESE 10 0
10.11.2019 23:00:00 -9,6 -11,6 21 11 - - SE 10 0
10.11.2019 22:00:00 -9,6 -12,9 13 7 - - S 10 0
10.11.2019 21:00:00 -10,0 -12,8 21 11 - - SE 10 0
10.11.2019 20:00:00 -10,2 -11,5 18 10 - - SE 10 0
10.11.2019 19:00:00 -10,0 -10,4 4 2 - - N 10 0
10.11.2019 18:00:00 -9,6 -10,1 13 7 - - S 20 0
10.11.2019 17:00:00 -9,4 -10,0 15 8 - - S 50 0
10.11.2019 16:00:00 -9,2 -15,5 8 4 - - SSO 50 0
10.11.2019 15:00:00 -8,6 -16,9 4 2 - - N 50 0
10.11.2019 14:00:00 -8,6 -19,2 15 8 - - ESE 50 0
10.11.2019 13:00:00 -8,8 -21,5 4 2 - - N 50 0
10.11.2019 12:00:00 -9,0 -23,1 24 13 - - ESE 50 0
10.11.2019 11:00:00 -10,2 -24,1 11 6 - - SE 50 0
10.11.2019 10:00:00 -10,2 -24,5 9 5 - - SSO 60 0
10.11.2019 09:00:00 -11,0 -29,1 4 2 - - N 40 0
10.11.2019 08:00:00 -11,4 -29,4 11 6 - - NE 30 0
10.11.2019 07:00:00 -11,6 -26,9 16 9 - - ENE 20 0
10.11.2019 06:00:00 -12,0 -24,7 9 5 - - SSO 10 0
10.11.2019 05:00:00 -12,8 -24,8 11 6 - - SSO 10 0
10.11.2019 04:00:00 -12,6 -23,7 15 8 - - SO 10 0
10.11.2019 03:00:00 -12,6 -23,4 22 12 - - SO 10 0
10.11.2019 02:00:00 -12,2 -24,2 22 12 - - SSO 10 0
10.11.2019 01:00:00 -12,2 -24,2 26 14 - - SSO 10 0
10.11.2019 00:00:00 -12,0 -23,5 29 16 - - SSO 10 0
09.11.2019 23:00:00 -13,0 -13,4 21 11 - - SSO 0,8 0
09.11.2019 22:00:00 -13,0 -13,4 16 9 - - SSO 0,1 0
09.11.2019 21:00:00 -12,2 -12,7 13 7 - - SO 0,1 0
09.11.2019 20:00:00 -12,6 -19,6 28 15 - - SSO 10 0
09.11.2019 19:00:00 -12,6 -20,4 26 14 - - SSO 10 0
09.11.2019 18:00:00 -12,0 -20,6 18 10 - - SSO 30 0
09.11.2019 17:00:00 -11,6 -20,4 18 10 - - SSO 60 0
09.11.2019 16:00:00 -11,0 -20,6 16 9 - - SO 60 0
09.11.2019 15:00:00 -10,2 -21,0 18 10 - - SSO 60 0
09.11.2019 14:00:00 -10,2 -20,1 16 9 - - SSO 60 0
09.11.2019 13:00:00 -9,6 -19,8 15 8 - - SSO 50 0
09.11.2019 12:00:00 -9,8 -18,8 11 6 - - SSO 50 0
09.11.2019 11:00:00 -11,2 -19,6 4 2 - - ENE 50 0
09.11.2019 10:00:00 -11,8 -19,7 2 1 - - NNE 30 0
09.11.2019 09:00:00 -13,2 -18,2 16 9 - - ENE 30 0
09.11.2019 08:00:00 -13,8 -18,1 22 12 - - ENE 30 0
09.11.2019 07:00:00 -13,2 -18,2 26 14 - - ENE 15 0
09.11.2019 06:00:00 -14,0 -17,3 31 17 - - NE 12 0
09.11.2019 05:00:00 -14,6 -17,3 31 17 - - NE 10 0
09.11.2019 04:00:00 -14,6 -16,5 31 17 - - NE 10 0
09.11.2019 03:00:00 -14,2 -16,9 24 13 - - ENE 10 0
09.11.2019 02:00:00 -14,0 -19,1 21 11 - - ENE 10 0
09.11.2019 01:00:00 -14,0 -17,5 21 11 - - ENE 10 0
09.11.2019 00:00:00 -13,6 -19,9 16 9 - - ENE 10 0
08.11.2019 23:00:00 -13,2 -21,4 22 12 - - NE 10 0
08.11.2019 22:00:00 -13,0 -23,0 18 10 - - ENE 10 0
08.11.2019 21:00:00 -12,0 -21,3 2 1 - - O 12 0
08.11.2019 20:00:00 -12,2 -23,1 5 3 - - E 12 0
08.11.2019 19:00:00 -12,4 -23,8 11 6 - - ENE 12 0
08.11.2019 18:00:00 -12,4 -20,7 18 10 - - ENE 12 0
08.11.2019 17:00:00 -12,2 -16,5 15 8 - - ENE 20 0
08.11.2019 16:00:00 -12,0 -12,5 9 5 - - ENE 15 0
08.11.2019 15:00:00 -11,2 -11,7 15 8 - - NE 0,8 0
08.11.2019 14:00:00 -9,6 -10,3 13 7 - - SSO 0,1 0
08.11.2019 13:00:00 -10,8 -11,3 9 5 - - NE 0,1 0
08.11.2019 12:00:00 -9,0 -9,5 8 4 - - O 0,3 0
08.11.2019 11:00:00 -9,4 -9,9 11 6 - - SSE 0,3 0
08.11.2019 10:00:00 -9,4 -9,9 9 5 - - SSE 0,1 0
08.11.2019 09:00:00 -9,4 -9,9 8 4 - - SSO 0,1 0
08.11.2019 08:00:00 -9,6 -10,1 22 12 - - SE 0,1 0
08.11.2019 07:00:00 -9,4 -9,9 15 8 - - SSE 0,1 0
08.11.2019 06:00:00 -9,2 -9,7 22 12 40 22 SSE 0,1 0
08.11.2019 05:00:00 -9,4 -9,9 9 5 38 20 S 0,1 0
08.11.2019 04:00:00 -9,4 -9,9 15 8 - - SO 0,1 0
08.11.2019 03:00:00 -9,2 -9,7 15 8 32 17 S 0,1 0
08.11.2019 02:00:00 -9,2 -9,7 11 6 28 15 S 0,2 0
08.11.2019 01:00:00 -9,0 -9,5 29 16 - - S 0,2 0
08.11.2019 00:00:00 -9,2 -9,7 15 8 - - SO 0,1 0
07.11.2019 23:00:00 -9,2 -9,7 24 13 54 29 S 0,1 0
07.11.2019 22:00:00 -9,6 -10,1 16 9 - - S 0,1 0
07.11.2019 21:00:00 -10,0 -10,5 21 11 - - S 0,1 0
07.11.2019 20:00:00 -10,0 -10,5 15 8 - - SO 0,1 0
07.11.2019 19:00:00 -9,4 -9,9 11 6 - - SSO - 0
07.11.2019 18:00:00 -8,8 -9,3 48 26 67 36 S 0,1 0
07.11.2019 17:00:00 -9,6 -10,1 11 6 - - SO 0,1 0
07.11.2019 16:00:00 -9,6 -10,1 26 14 - - SSO 0,1 0
07.11.2019 15:00:00 -9,4 -9,9 29 16 - - SSO 0,6 0
07.11.2019 14:00:00 -8,8 -9,3 31 17 51 27 SSO 0,3 0
07.11.2019 13:00:00 -8,8 -9,3 35 19 - - SSO 0,8 0
07.11.2019 12:00:00 -8,2 -8,8 35 19 55 30 SSO 10 0
07.11.2019 11:00:00 -8,4 -10,6 28 15 52 28 SSO 10 0
07.11.2019 10:00:00 -8,6 -15,0 34 18 - - SSO 15 1
07.11.2019 09:00:00 -9,6 -21,0 39 21 - - SSO 20 0
07.11.2019 08:00:00 -9,8 -22,1 31 17 - - SSO 20 0
07.11.2019 07:00:00 -10,4 -21,4 28 15 - - SO 20 0
07.11.2019 06:00:00 -10,6 -18,8 26 14 - - SO 12 0
07.11.2019 05:00:00 -11,4 -16,7 28 15 - - SO 10 0
07.11.2019 04:00:00 -11,6 -16,5 28 15 - - SO 10 0
07.11.2019 03:00:00 -11,4 -15,1 24 13 - - SSO 10 0
07.11.2019 02:00:00 -11,4 -16,1 18 10 - - SSO 10 0
07.11.2019 01:00:00 -11,4 -16,3 15 8 - - SO 10 0
07.11.2019 00:00:00 -11,6 -16,5 11 6 - - ENE 10 0
06.11.2019 23:00:00 -11,6 -16,0 18 10 - - NE 10 0
06.11.2019 22:00:00 -11,6 -15,1 22 12 - - ENE 10 0
06.11.2019 21:00:00 -11,8 -12,3 26 14 - - NE 10 0
06.11.2019 20:00:00 -12,2 -12,7 22 12 - - NE 10 0
06.11.2019 19:00:00 -12,0 -12,5 35 19 - - NE 10 0
06.11.2019 18:00:00 -11,8 -12,3 29 16 - - NE 10 0
06.11.2019 17:00:00 -11,8 -12,3 26 14 - - NE 1,0 0
06.11.2019 16:00:00 -11,2 -11,7 22 12 - - NE 1,0 0
06.11.2019 15:00:00 -11,2 -11,7 21 11 - - NE 1,0 0
06.11.2019 14:00:00 -11,4 -11,9 24 13 - - NE 10 0
06.11.2019 13:00:00 -11,6 -12,1 28 15 - - NE 10 0
06.11.2019 12:00:00 -11,6 -12,1 34 18 - - NE 0,8 0
06.11.2019 11:00:00 -11,2 -11,7 29 16 - - NE 0,6 0
06.11.2019 10:00:00 -11,2 -11,7 29 16 - - NE 0,8 0
06.11.2019 09:00:00 -11,0 -11,5 26 14 - - NE 0,3 0
06.11.2019 08:00:00 -10,8 -11,3 21 11 - - NE 0,8 0
06.11.2019 07:00:00 -10,4 -10,9 21 11 - - NE 0,8 0
06.11.2019 06:00:00 -9,0 -9,5 5 3 - - ENE 0,8 0

tt = Temperatura
td = dewpoint
ff = velocità del vento
fx = gusts
dd = direzione del vento
vv = visibility
sd = ore di luce

Stazioni seguenti

WeatherPro
AMSI
MeteoEarth